Regional Weather Roundup
Issued by NWS

Home | Current Version | Previous Version | Text Only | Print | Product List | Glossary On
Versions: 1 2 3 4 5 6 7 8 9 10 11 12 13 14 15 16 17 18 19 20 21 22 23 24 25 26 27 28 29 30 31 32 33 34 35 36 37 38 39 40 41 42 43 44 45 46 47 48 49 50
649
ASUS43 KTOP 200508
RWRKS

WEATHER ROUNDUP FOR KANSAS
NATIONAL WEATHER SERVICE GOODLAND KS
1100 PM CST MON FEB 19 2018

NOTE:  "FAIR" INDICATES FEW OR NO CLOUDS BELOW 12,000 FEET WITH NO
SIGNIFICANT WEATHER AND/OR OBSTRUCTIONS TO VISIBILITY.

KSZ001>006-013>018-027>032-041>047-200600-
NORTHWEST KANSAS

CITY           SKY/WX    TMP DP  RH WIND       PRES   REMARKS
GOODLAND       LGT SNOW  12   8  84 N14       29.76R FOG     WCI  -3
HAYS           CLOUDY    19  15  84 N15       29.82F WCI   5
HILL CITY      CLOUDY    17  13  84 N13       29.85S WCI   4
RUSSELL        CLOUDY    21  19  92 N13       29.82R FOG     WCI   9
$$

KSZ061>065-074>080-084>089-200600-
SOUTHWEST KANSAS

CITY           SKY/WX    TMP DP  RH WIND       PRES   REMARKS
DODGE CITY     CLOUDY    23  14  68 NE15      29.72F WCI  10
ELKHART        CLEAR     28  23  80 E10       29.63S WCI  19
GARDEN CITY    CLOUDY    20  13  74 NE14      29.74R WCI   7
GREAT BEND     CLOUDY    23  17  78 NE12      29.81R WCI  12
LIBERAL        CLEAR     28  19  69 E13       29.67F WCI  17
PRATT          CLOUDY    27  19  74 NE13      29.77F WCI  16
$$

KSZ066>073-081>083-090>101-200600-
SOUTHEAST KANSAS

CITY           SKY/WX    TMP DP  RH WIND       PRES   REMARKS
CHANUTE        CLOUDY    36  35  96 N7        29.80R FOG
COFFEYVILLE    HVY RAIN  39  39 100 N5        29.78R FOG
HUTCHINSON     CLOUDY    26  32 100 N9        29.79F
MEDICINE LODGE   N/A     28  27  96 NE12      29.76F WCI  18
NEWTON         CLOUDY    26  25  96 N13       29.79R FOG     WCI  15
PARSONS        CLOUDY    38  38 100 N5        29.80R FOG
WICHITA INTL   FRZ DRZL  29  29 100 N12       29.79S FOG     WCI  19
WICHITA JABRA  CLOUDY    28  28 100 N12       29.78S FOG     WCI  18
WICHITA MCCONL FRZ RAIN  29  28  96 N9        29.78  FOG
WINFIELD       CLOUDY    32  32 100 NW7       29.79R FOG
$$

KSZ007>012-019>026-033>040-048>060-102>105-200600-
NORTHEAST KANSAS

CITY           SKY/WX    TMP DP  RH WIND       PRES   REMARKS
CONCORDIA      MIX PCPN  20  18  92 NW10      29.86S VSB 1   WCI   9
EMPORIA        CLOUDY    29  27  92 N7        29.80S FOG
LAWRENCE       CLOUDY    30  29  96 NW8       29.83S FOG
MANHATTAN      FRZ RAIN  26  24  92 N8        29.83F FOG
MARYSVILLE     CLOUDY    23  21  93 N7        29.84S
OLATHE IND     CLOUDY    30  30 100 N8        29.81S FOG
OLATHE EXE     CLOUDY    30  30 100 N6        29.80R FOG
SALINA         CLOUDY    24  23  96 N14       29.85S FOG     WCI  12
TOPEKA BILLARD CLOUDY    28  28 100 N8        29.84R FOG
TOPEKA FORBES  CLOUDY    29  27  92 N8        29.81S FOG
$$




USA.gov is the U.S. government's official web portal to all federal, state and local government web resources and services.